TimeMDT,TemperatureF,Dew PointF,Humidity,Sea Level PressureIn,VisibilityMPH,Wind Direction,Wind SpeedMPH,Gust SpeedMPH,PrecipitationIn,Events,Conditions,WindDirDegrees,DateUTC
12:00 AM,29.1,28.0,96,30.37,-9999.0,ENE,6.9,-,0.02,,Unknown,70,2012-10-11 06:00:00
1:00 AM,29.1,28.4,97,30.37,-9999.0,East,5.8,-,N/A,,Unknown,90,2012-10-11 07:00:00
2:00 AM,28.9,28.4,98,30.37,-9999.0,SE,5.8,-,0.01,,Unknown,140,2012-10-11 08:00:00
3:00 AM,28.8,28.0,97,30.37,-9999.0,SE,6.9,-,N/A,,Unknown,140,2012-10-11 09:00:00
4:00 AM,28.6,28.0,98,30.37,-9999.0,SE,8.1,-,N/A,,Unknown,140,2012-10-11 10:00:00
5:00 AM,28.8,28.2,98,30.35,-9999.0,SE,9.2,-,N/A,,Unknown,140,2012-10-11 11:00:00
6:00 AM,28,28,98,30.35,,SE,9.2,,,,,140,2012-10-11 12:00:00
6:00 AM,28.4,27.7,97,30.35,-9999.0,SE,9.2,-,N/A,,Unknown,140,2012-10-11 12:00:00
7:00 AM,28.6,28.0,98,30.35,-9999.0,SSE,9.2,-,N/A,,Unknown,150,2012-10-11 13:00:00
8:00 AM,28.6,27.9,97,30.32,-9999.0,SE,10.4,-,N/A,,Unknown,140,2012-10-11 14:00:00
9:00 AM,29.1,28.2,96,30.31,-9999.0,SSE,12.7,-,N/A,,Unknown,150,2012-10-11 15:00:00
10:00 AM,29.8,28.9,96,30.29,-9999.0,SSE,12.7,-,N/A,,Unknown,160,2012-10-11 16:00:00
11:00 AM,30.7,29.1,94,30.26,-9999.0,SSE,12.7,-,N/A,,Unknown,160,2012-10-11 17:00:00
12:00 PM,33,31,90,30.21,,SSE,12.7,,,,,160,2012-10-11 18:00:00
12:00 PM,33.1,31.1,92,30.21,-9999.0,SSE,12.7,-,N/A,,Unknown,160,2012-10-11 18:00:00
2:00 PM,39.6,33.8,80,30.11,-9999.0,South,15.0,-,N/A,,Unknown,170,2012-10-11 20:00:00
3:00 PM,41.0,35.1,79,30.08,-9999.0,SSE,18.4,-,N/A,,Unknown,150,2012-10-11 21:00:00
4:00 PM,43.0,34.5,72,30.04,-9999.0,SSE,15.0,-,N/A,,Unknown,150,2012-10-11 22:00:00
5:00 PM,42.1,35.1,76,30.01,-9999.0,SSE,12.7,-,N/A,,Unknown,160,2012-10-11 23:00:00
6:00 PM,42,36,72,29.99,,SE,9.2,,,,,140,2012-10-12 00:00:00
6:00 PM,41.5,36.1,81,29.99,-9999.0,SE,9.2,-,N/A,,Unknown,140,2012-10-12 00:00:00
7:00 PM,39.4,36.1,88,29.97,-9999.0,SE,5.8,-,N/A,,Unknown,140,2012-10-12 01:00:00
8:00 PM,37.8,35.8,93,29.94,-9999.0,ESE,3.5,-,N/A,,Unknown,120,2012-10-12 02:00:00
9:00 PM,36.9,35.2,94,29.91,-9999.0,SE,4.6,-,N/A,,Unknown,140,2012-10-12 03:00:00
11:00 PM,37.2,36.1,96,29.87,-9999.0,SW,3.5,-,N/A,,Unknown,230,2012-10-12 05:00:00